Wind_Speed
2 2 2 3 3 4 4 4 4 3 3 4 4 4 4 4 5 5 6 5 5 5 5 5 5 5 5 5 5 6 6 6 6 6 6 6 7 7 7 7 7 7 7
1 1 1 1 2 2 3 3 3 3 3 3 3 3 3 4 4 4 4 4 4 4 4 4 4 4 5 5 5 5 5 5 6 6 6 6 7 7 6 7 7 7 7
1 0 0 1 1 2 2 2 2 2 2 2 2 2 3 3 3 3 2 3 3 3 3 3 3 3 4 4 4 4 5 5 5 5 5 6 6 6 6 6 7 7 6
2 1 1 1 1 1 2 2 2 1 1 1 1 1 2 2 2 2 1 2 2 2 2 2 2 2 3 3 3 3 4 4 4 4 5 5 5 5 5 6 6 6 6
2 2 2 2 2 2 2 2 1 1 1 1 1 1 1 1 1 1 1 1 1 1 1 1 2 2 2 2 2 3 3 3 3 4 4 4 4 5 5 5 5 5 5
3 3 3 3 4 3 3 2 2 1 0 1 1 1 1 1 1 1 1 0 0 0 1 1 1 1 1 2 2 2 2 2 2 3 3 3 3 4 4 4 4 4 4
3 4 4 4 5 4 4 3 3 2 1 1 1 1 1 1 1 1 1 1 1 1 1 1 1 1 1 1 1 1 1 1 1 2 2 2 2 3 3 3 3 3 3
4 5 5 5 5 5 5 4 4 3 2 1 1 1 1 1 1 0 0 1 1 1 2 2 2 1 1 1 1 1 1 1 1 1 1 1 1 2 2 2 2 2 2
5 5 5 6 6 7 6 5 4 4 3 2 2 2 1 1 1 1 1 1 1 2 2 2 2 1 1 1 1 1 1 2 1 1 1 1 1 1 1 2 2 2 1
5 5 5 6 7 8 8 6 5 5 4 3 3 3 2 2 2 2 2 2 2 2 2 2 2 2 1 1 1 2 1 2 1 1 1 1 1 1 1 1 2 2 2
6 6 6 6 7 7 8 8 7 6 5 4 3 3 3 2 2 2 2 2 2 3 2 2 2 1 1 1 1 2 1 1 1 1 1 1 1 1 1 1 2 2 2
6 5 6 6 7 7 8 9 8 8 7 5 4 4 3 3 2 2 2 2 2 3 2 2 1 1 1 1 1 1 1 1 1 1 1 1 1 1 1 2 2 2 3
6 6 6 6 7 7 9 9 9 9 8 7 6 5 5 4 4 3 3 3 3 2 2 1 1 1 0 1 1 1 1 1 1 0 1 1 1 2 2 2 2 3 3
5 5 6 7 7 8 9 10 10 9 10 9 7 6 6 5 5 4 4 3 2 2 1 1 1 1 0 0 1 0 0 1 2 2 1 1 1 1 2 3 2 2 3
6 6 6 7 7 8 9 10 10 10 10 10 8 7 6 6 5 5 4 3 2 2 1 1 0 1 1 1 1 1 1 1 2 2 2 2 2 2 2 3 3 2 2
7 7 7 7 7 8 9 10 10 11 11 11 9 8 7 7 6 5 4 3 3 2 1 1 0 1 1 1 1 1 1 1 1 2 2 2 2 2 2 3 3 3 3
7 7 7 7 7 8 9 10 11 11 12 12 11 9 9 8 6 6 5 4 4 3 2 1 1 1 1 1 0 1 1 1 1 2 1 2 2 2 2 3 3 3 3
8 8 7 8 8 9 10 10 11 11 12 13 12 11 9 8 7 6 6 5 4 4 3 2 2 1 1 1 1 0 0 0 1 1 1 1 1 2 2 3 3 4 4
8 8 7 8 9 9 10 11 11 11 12 13 13 12 10 9 8 7 6 6 5 5 4 3 2 2 1 1 1 1 0 0 1 1 1 1 1 2 3 3 3 4 4
8 8 8 8 10 10 10 11 11 11 12 13 13 13 11 10 9 8 7 7 6 5 5 4 3 3 2 1 1 1 1 1 1 1 1 2 2 2 3 3 4 3 3
9 8 8 9 10 11 11 12 12 12 12 14 14 13 12 10 10 9 9 8 7 6 6 5 4 3 2 2 1 1 1 1 1 1 1 1 1 1 2 3 4 4 4
10 9 9 10 10 10 11 12 13 12 13 13 14 14 13 12 11 10 9 9 8 8 7 6 5 4 3 2 2 2 2 1 1 1 1 1 1 2 2 3 3 4 4
10 9 9 10 10 10 11 12 12 12 13 14 15 15 15 13 12 11 10 9 9 9 8 7 5 4 4 3 2 2 2 2 1 1 1 1 2 2 3 4 3 3 4
10 10 10 10 11 11 12 12 12 12 13 14 15 15 15 15 14 12 11 11 10 9 8 7 7 6 5 4 3 2 2 2 1 0 1 1 2 3 4 4 4 4 5
10 10 10 11 12 13 12 13 13 13 14 14 15 15 15 15 14 13 12 12 11 10 9 8 7 7 6 5 4 3 3 2 1 1 1 2 3 3 4 4 5 6 5
10 10 11 10 12 12 13 13 13 14 14 14 15 16 16 16 15 14 13 12 12 11 10 9 8 7 6 5 4 4 3 2 2 2 3 3 4 4 4 5 5 6 7
Wind_Direction
42 65 84 94 91 87 83 81 72 66 63 68 72 74 78 84 89 91 92 91 92 93 93 97 98 94 93 92 90 90 88 87 83 82 85 86 82 78 78 81 83 84 81
42 60 96 113 104 97 95 88 76 69 62 65 68 73 77 78 80 82 86 88 88 88 87 88 89 90 91 90 87 85 84 84 83 81 82 83 81 77 76 77 78 81 80
343 26 146 148 143 122 116 104 87 72 62 65 64 70 79 77 71 70 74 79 82 82 79 75 77 82 84 83 82 79 79 79 81 78 78 78 75 74 76 74 76 77 78
301 253 225 201 193 174 145 122 101 81 66 60 57 51 61 65 62 58 54 63 72 75 74 69 75 82 82 80 78 75 72 73 77 74 72 70 67 69 71 74 76 78 77
280 257 240 227 213 205 188 164 134 111 61 51 52 38 30 27 31 35 35 59 66 67 63 59 66 71 73 74 72 70 67 68 75 69 67 63 64 65 68 71 73 75 76
276 250 238 232 222 216 206 198 191 203 300 350 22 29 1 349 357 7 20 29 10 2 14 19 36 49 52 52 59 67 63 58 57 60 61 60 65 63 63 65 69 70 71
277 255 241 234 229 225 216 210 209 216 251 287 303 331 320 320 340 23 10 329 307 304 296 302 335 11 28 37 47 50 40 44 48 45 46 52 56 52 49 57 64 67 68
275 258 250 238 232 227 224 221 219 224 235 261 269 288 301 291 271 276 305 303 304 310 306 292 291 307 344 351 348 353 350 334 341 360 9 33 42 39 41 49 49 54 69
273 261 249 241 237 233 228 227 226 227 237 248 256 263 269 266 261 262 271 285 302 316 316 307 298 298 294 276 272 291 305 302 294 313 323 332 353 12 25 28 26 23 28
280 276 255 244 237 234 230 232 230 231 239 243 251 254 254 259 267 275 263 282 302 317 319 311 301 297 283 269 270 281 290 294 293 290 305 311 306 306 323 348 358 359 359
282 275 263 249 238 233 234 236 237 233 233 237 244 246 249 264 267 268 269 279 303 314 317 318 310 295 276 276 279 289 281 277 304 295 309 310 314 290 290 337 357 359 352
281 278 268 251 238 237 237 236 236 233 229 232 237 240 248 264 261 264 269 273 300 319 318 321 328 307 284 289 282 288 295 308 280 296 330 327 347 18 358 337 340 343 333
272 277 262 248 237 242 241 234 233 232 229 230 236 245 250 259 261 263 272 278 290 307 316 329 335 326 310 304 300 310 324 348 339 264 4 9 323 344 4 344 330 328 327
266 264 257 252 240 240 241 235 231 229 226 229 235 244 247 253 258 258 267 275 274 283 300 320 329 3 12 338 314 319 6 24 14 22 7 8 328 338 356 350 335 327 319
262 259 254 254 246 241 238 234 228 225 226 231 237 236 239 249 253 253 258 261 256 265 282 288 329 41 57 66 52 0 351 6 357 17 21 8 1 5 5 358 349 339 329
262 260 260 259 251 246 233 228 226 228 232 234 232 228 232 239 245 245 244 245 246 249 268 303 117 91 88 94 37 21 20 8 1 357 7 5 3 6 10 5 4 348 333
263 255 261 252 247 244 232 228 228 233 231 228 226 229 231 235 240 235 234 238 234 227 220 200 140 131 107 109 100 63 44 18 356 12 18 13 14 11 4 0 356 354 343
261 261 256 247 244 237 233 229 233 233 227 223 223 223 227 228 229 226 225 228 221 213 209 195 181 179 160 171 173 152 28 7 32 38 29 15 7 3 359 348 342 340 339
264 266 257 242 238 238 237 231 235 227 222 220 217 219 223 226 225 221 221 222 217 210 205 199 196 198 207 210 197 208 231 176 67 44 36 22 7 6 1 352 342 340 335
265 258 252 248 240 240 236 230 231 226 223 219 217 218 221 225 224 220 219 218 216 212 207 202 203 215 227 225 210 211 190 160 106 61 28 18 17 9 356 353 352 345 337
261 254 256 248 247 242 236 226 224 225 219 217 220 218 220 223 218 215 214 214 212 211 204 200 202 208 214 203 194 190 156 132 104 46 18 6 7 1 354 352 351 346 336
259 255 258 252 246 242 231 224 223 223 221 218 218 218 221 221 217 215 212 212 210 208 203 198 196 198 199 197 188 174 155 141 127 59 33 31 19 359 349 338 336 345 345
257 257 258 251 247 238 228 223 224 222 224 222 220 220 221 219 213 210 209 209 207 204 201 199 198 202 198 192 179 171 159 149 121 75 15 16 12 352 337 330 322 326 335
258 251 252 249 243 233 228 221 220 222 221 221 221 218 215 213 211 209 209 207 205 202 203 203 204 203 200 198 191 182 176 172 176 236 315 318 324 325 319 315 306 309 315
260 252 251 246 236 230 227 222 222 222 220 222 223 217 210 206 208 209 209 208 207 207 208 210 210 205 205 207 204 198 195 190 210 262 301 313 311 306 307 306 304 304 300
263 256 247 238 227 227 224 221 222 223 224 223 220 212 208 208 208 209 208 208 209 211 213 214 209 209 209 210 213 216 221 226 251 279 300 307 307 306 306 307 309 308 304
Height
5882 5882 5882 5883 5883 5883 5884 5885 5885 5886 5886 5886 5886 5886 5886 5886 5886 5886 5886 5886 5886 5885 5885 5885 5884 5884 5884 5884 5884 5884 5883 5883 5883 5883 5882 5882 5882 5881 5880 5880 5880 5879 5879
5882 5882 5883 5883 5884 5884 5885 5885 5886 5887 5887 5887 5887 5887 5887 5887 5887 5887 5887 5887 5887 5886 5886 5886 5886 5885 5885 5885 5885 5885 5885 5884 5884 5884 5883 5883 5883 5882 5882 5881 5881 5880 5880
5882 5882 5883 5883 5884 5884 5885 5886 5886 5887 5887 5888 5888 5888 5889 5888 5888 5888 5888 5888 5888 5887 5887 5887 5886 5886 5886 5886 5886 5886 5886 5885 5885 5885 5885 5884 5884 5883 5883 5882 5882 5882 5881
5882 5883 5883 5884 5884 5885 5886 5886 5887 5888 5888 5889 5889 5889 5889 5889 5889 5889 5889 5888 5888 5888 5888 5887 5887 5887 5887 5887 5887 5886 5886 5886 5886 5886 5885 5885 5885 5884 5884 5883 5883 5883 5883
5882 5882 5883 5883 5884 5885 5886 5886 5887 5888 5888 5889 5889 5889 5890 5890 5889 5889 5889 5889 5889 5888 5888 5888 5888 5888 5887 5887 5887 5887 5887 5887 5887 5886 5886 5886 5886 5885 5885 5884 5884 5884 5884
5881 5882 5882 5883 5884 5885 5886 5886 5887 5888 5888 5889 5889 5890 5890 5890 5890 5890 5889 5889 5889 5889 5888 5888 5888 5888 5888 5888 5887 5887 5887 5887 5887 5887 5887 5886 5886 5886 5886 5885 5885 5885 5884
5881 5881 5882 5883 5884 5885 5885 5886 5887 5888 5888 5889 5889 5890 5890 5890 5890 5890 5890 5889 5889 5889 5889 5888 5888 5888 5888 5888 5888 5887 5887 5887 5887 5887 5887 5887 5886 5886 5886 5886 5886 5885 5885
5880 5880 5881 5882 5883 5884 5885 5886 5886 5887 5888 5889 5889 5890 5890 5890 5890 5890 5890 5890 5889 5889 5889 5888 5888 5888 5888 5888 5888 5887 5887 5887 5887 5887 5887 5886 5886 5886 5886 5886 5886 5885 5885
5878 5879 5880 5881 5882 5883 5884 5885 5886 5887 5888 5888 5889 5889 5890 5890 5890 5890 5890 5890 5889 5889 5889 5888 5888 5888 5888 5888 5888 5887 5887 5887 5887 5887 5887 5887 5886 5886 5886 5886 5886 5886 5885
5878 5878 5879 5879 5881 5882 5883 5884 5885 5886 5887 5888 5889 5889 5889 5890 5890 5890 5890 5889 5889 5889 5888 5888 5888 5888 5888 5887 5887 5887 5887 5887 5887 5886 5886 5886 5886 5886 5886 5886 5886 5885 5885
5877 5877 5878 5878 5879 5881 5882 5883 5884 5885 5886 5887 5888 5889 5889 5889 5889 5889 5889 5889 5889 5889 5888 5888 5888 5888 5887 5887 5887 5887 5887 5886 5886 5886 5886 5886 5886 5886 5885 5885 5885 5885 5885
5875 5875 5876 5877 5878 5879 5880 5881 5883 5884 5885 5886 5887 5888 5889 5889 5889 5889 5889 5889 5888 5888 5888 5888 5887 5887 5887 5887 5887 5886 5886 5886 5886 5886 5886 5886 5886 5886 5885 5885 5885 5885 5884
5873 5874 5874 5875 5876 5877 5879 5880 5881 5882 5884 5885 5886 5887 5888 5888 5888 5888 5888 5888 5888 5888 5888 5887 5887 5887 5887 5887 5886 5886 5886 5886 5886 5885 5886 5886 5885 5885 5885 5884 5884 5884 5884
5871 5872 5872 5873 5874 5875 5876 5878 5879 5881 5882 5884 5885 5886 5887 5887 5887 5888 5888 5888 5888 5888 5888 5887 5887 5887 5886 5886 5886 5886 5886 5886 5886 5885 5885 5885 5885 5885 5884 5884 5883 5883 5883
5868 5869 5870 5871 5872 5873 5874 5876 5877 5879 5881 5882 5883 5885 5885 5886 5887 5887 5887 5887 5887 5887 5887 5887 5887 5887 5886 5886 5886 5886 5886 5886 5886 5885 5885 5885 5885 5884 5884 5883 5883 5882 5882
5866 5866 5867 5868 5869 5871 5872 5873 5875 5877 5878 5880 5882 5883 5884 5885 5886 5886 5886 5886 5887 5887 5887 5887 5887 5887 5886 5886 5886 5886 5886 5885 5885 5885 5885 5885 5884 5884 5883 5883 5882 5882 5882
5862 5863 5864 5866 5867 5868 5869 5871 5872 5874 5876 5878 5880 5881 5882 5883 5884 5885 5885 5886 5886 5886 5886 5886 5887 5887 5887 5887 5886 5886 5886 5885 5885 5885 5885 5884 5884 5884 5883 5883 5882 5882 5881
5860 5861 5862 5863 5864 5865 5867 5868 5870 5871 5873 5875 5877 5879 5880 5881 5883 5884 5884 5885 5886 5886 5886 5886 5886 5887 5887 5886 5886 5886 5885 5885 5885 5885 5884 5884 5884 5883 5883 5883 5882 5881 5881
5858 5858 5859 5860 5861 5863 5864 5866 5867 5869 5871 5873 5875 5877 5879 5880 5881 5882 5883 5884 5885 5885 5886 5886 5886 5886 5886 5886 5886 5886 5885 5885 5885 5885 5884 5884 5884 5883 5883 5882 5882 5881 5880
5855 5856 5857 5858 5859 5860 5862 5863 5865 5866 5868 5870 5872 5874 5876 5878 5879 5881 5882 5883 5884 5884 5885 5885 5886 5886 5886 5886 5886 5886 5885 5885 5885 5885 5884 5884 5883 5883 5882 5882 5881 5880 5879
5852 5853 5854 5855 5855 5857 5859 5861 5862 5864 5866 5868 5870 5872 5874 5876 5878 5879 5880 5882 5882 5883 5884 5884 5885 5885 5885 5885 5886 5885 5885 5885 5885 5885 5884 5884 5883 5883 5882 5881 5881 5880 5879
5849 5849 5850 5851 5852 5854 5856 5858 5860 5861 5863 5865 5867 5870 5872 5874 5876 5877 5879 5880 5881 5882 5883 5884 5884 5885 5885 5885 5885 5885 5885 5886 5885 5885 5884 5883 5883 5882 5881 5881 5880 5879 5878
5845 5846 5847 5848 5849 5851 5853 5855 5857 5858 5860 5862 5865 5868 5870 5872 5873 5875 5877 5878 5880 5881 5882 5883 5883 5884 5884 5885 5885 5885 5885 5885 5885 5885 5884 5883 5883 5882 5881 5880 5879 5878 5877
5843 5843 5844 5845 5847 5848 5850 5852 5854 5856 5858 5860 5862 5865 5867 5869 5872 5873 5875 5877 5878 5880 5881 5882 5883 5883 5883 5884 5884 5884 5885 5884 5884 5884 5884 5883 5882 5881 5880 5879 5878 5877 5876
5841 5841 5841 5842 5843 5845 5847 5850 5852 5853 5855 5857 5859 5862 5864 5867 5869 5872 5873 5875 5877 5878 5879 5881 5881 5882 5883 5883 5883 5884 5884 5884 5884 5883 5883 5882 5881 5880 5879 5878 5877 5876 5875
5838 5837 5838 5839 5840 5842 5844 5846 5848 5850 5852 5854 5857 5859 5862 5865 5867 5870 5871 5873 5875 5877 5878 5879 5880 5881 5881 5882 5882 5883 5883 5883 5883 5882 5882 5881 5880 5879 5878 5877 5876 5875 5874